^^
Datos históricos de la estación: Murcia-Puente Tocinos
Diario Informe para Enero 29, 2019 Unidades:  Métrico    Inglés   Ambas
Diario Semanal Mensual Anual Configurable
  Máximo: Mínimo: Media:
Temperatura: 18.5 °C 11.2 °C 14.2 °C
Punto de rocio: 5.1 °C 2.7 °C 3.8 °C
Humedad: 60% 41% 50%
Velocidad viento: 19.3km/h 1.6km/h 6.6km/h
Racha viento: 29.0km/h - -
Viento- - SSW
Presión: 1015.1 hPa 1009.1 hPa -
Precipitación: 0.0 mm    
Historical Graphs
 
 
Tabla de datos para Enero 29, 2019
Hora Temperatura Punto de rocio Presión Viento Velocidad viento Racha viento Humedad Intensidad lluvia(por hora) Nubes
00:00 14.2 °C 3.1 °C 1014.3 hPa SW 9.7 km/h 19.3 km/h 47% 0.0 mm CLR
00:04 14.3 °C 3.1 °C 1014.3 hPa SW 9.5 km/h 11.1 km/h 47% 0.0 mm CLR
00:10 14.4 °C 3.2 °C 1014.3 hPa WSW 8.7 km/h 14.8 km/h 47% 0.0 mm CLR
00:15 14.4 °C 3.2 °C 1014.3 hPa WSW 9.7 km/h 14.5 km/h 47% 0.0 mm CLR
00:20 14.3 °C 3.1 °C 1014.4 hPa SW 8.7 km/h 9.3 km/h 47% 0.0 mm CLR
00:25 14.2 °C 3.1 °C 1014.4 hPa SW 8.7 km/h 9.3 km/h 47% 0.0 mm CLR
00:29 14.2 °C 3.3 °C 1014.4 hPa SW 5.0 km/h 7.4 km/h 48% 0.0 mm CLR
00:35 13.8 °C 2.9 °C 1014.7 hPa ENE 5.0 km/h 7.6 km/h 48% 0.0 mm CLR
00:40 13.2 °C 2.7 °C 1014.7 hPa East 4.8 km/h 11.3 km/h 49% 0.0 mm CLR
00:45 12.9 °C 3.0 °C 1014.7 hPa East 4.8 km/h 12.9 km/h 51% 0.0 mm CLR
00:50 12.9 °C 3.0 °C 1014.9 hPa ESE 8.4 km/h 14.8 km/h 51% 0.0 mm CLR
00:55 13.2 °C 3.2 °C 1014.9 hPa ESE 8.0 km/h 16.1 km/h 51% 0.0 mm CLR
00:59 13.7 °C 3.2 °C 1014.9 hPa ESE 11.1 km/h 16.7 km/h 49% 0.0 mm CLR
01:05 14.1 °C 3.3 °C 1014.9 hPa ESE 11.3 km/h 19.3 km/h 48% 0.0 mm CLR
01:10 14.3 °C 3.4 °C 1014.9 hPa ESE 9.7 km/h 11.3 km/h 48% 0.0 mm CLR
01:15 14.3 °C 3.4 °C 1014.9 hPa South 9.5 km/h 7.6 km/h 48% 0.0 mm CLR
01:20 14.6 °C 3.4 °C 1014.9 hPa South 4.8 km/h 14.5 km/h 47% 0.0 mm CLR
01:25 14.7 °C 3.5 °C 1014.9 hPa SSE 4.8 km/h 9.7 km/h 47% 0.0 mm CLR
01:30 14.7 °C 3.5 °C 1014.9 hPa SSW 5.0 km/h 11.1 km/h 47% 0.0 mm CLR
01:34 14.7 °C 3.5 °C 1015.0 hPa South 5.0 km/h 6.9 km/h 47% 0.0 mm CLR
01:40 14.6 °C 3.4 °C 1015.0 hPa South 5.0 km/h 11.1 km/h 47% 0.0 mm CLR
01:45 14.7 °C 3.5 °C 1015.0 hPa SSE 5.0 km/h 9.3 km/h 47% 0.0 mm CLR
01:50 14.6 °C 3.4 °C 1015.0 hPa SSW 8.0 km/h 11.3 km/h 47% 0.0 mm FEW
01:54 14.5 °C 3.6 °C 1015.0 hPa South 6.9 km/h 13.0 km/h 48% 0.0 mm FEW
01:59 14.6 °C 3.4 °C 1015.0 hPa South 6.9 km/h 13.0 km/h 47% 0.0 mm FEW
02:05 14.6 °C 3.4 °C 1015.0 hPa SSW 6.9 km/h 9.3 km/h 47% 0.0 mm FEW
02:09 14.6 °C 3.7 °C 1015.0 hPa SW 6.9 km/h 9.3 km/h 48% 0.0 mm FEW
02:15 14.6 °C 3.4 °C 1015.0 hPa SW 8.0 km/h 9.7 km/h 47% 0.0 mm FEW
02:20 14.6 °C 3.7 °C 1015.0 hPa SSW 4.8 km/h 9.7 km/h 48% 0.0 mm SCT
02:25 14.5 °C 3.6 °C 1015.0 hPa SSW 4.8 km/h 8.0 km/h 48% 0.0 mm SCT
02:29 14.4 °C 3.5 °C 1015.0 hPa SSW 5.0 km/h 9.3 km/h 48% 0.0 mm SCT
02:35 14.3 °C 3.4 °C 1014.9 hPa South 4.8 km/h 9.7 km/h 48% 0.0 mm SCT
02:39 14.2 °C 3.6 °C 1014.9 hPa SSW 5.8 km/h 8.7 km/h 49% 0.0 mm SCT
02:45 14.0 °C 3.4 °C 1014.9 hPa SSW 4.8 km/h 11.3 km/h 49% 0.0 mm SCT
02:49 14.0 °C 3.4 °C 1014.9 hPa South 6.4 km/h 7.6 km/h 49% 0.0 mm CLR
02:55 14.0 °C 3.4 °C 1014.9 hPa SSW 8.0 km/h 9.7 km/h 49% 0.0 mm CLR
02:59 14.1 °C 3.6 °C 1014.9 hPa WSW 6.4 km/h 7.4 km/h 49% 0.0 mm CLR
03:05 14.1 °C 3.6 °C 1014.9 hPa SW 8.0 km/h 9.7 km/h 49% 0.0 mm CLR
03:09 14.1 °C 3.2 °C 1014.9 hPa WNW 4.7 km/h 13.0 km/h 48% 0.0 mm CLR
03:15 14.1 °C 3.2 °C 1014.9 hPa West 3.2 km/h 12.9 km/h 48% 0.0 mm CLR
03:20 14.1 °C 3.2 °C 1014.9 hPa West 9.7 km/h 16.1 km/h 48% 0.0 mm CLR
03:25 13.9 °C 3.3 °C 1014.9 hPa WNW 9.7 km/h 14.5 km/h 49% 0.0 mm CLR
03:30 13.7 °C 3.2 °C 1014.9 hPa West 9.7 km/h 16.1 km/h 49% 0.0 mm CLR
03:35 13.6 °C 3.4 °C 1015.0 hPa West 9.7 km/h 16.1 km/h 50% 0.0 mm CLR
03:40 13.5 °C 3.3 °C 1015.0 hPa West 8.0 km/h 12.9 km/h 50% 0.0 mm CLR
03:45 13.3 °C 3.4 °C 1015.0 hPa WSW 8.4 km/h 7.4 km/h 51% 0.0 mm CLR
03:50 13.2 °C 3.3 °C 1015.0 hPa West 4.8 km/h 8.0 km/h 51% 0.0 mm CLR
03:55 13.1 °C 3.2 °C 1015.0 hPa SW 5.0 km/h 7.4 km/h 51% 0.0 mm CLR
04:00 13.1 °C 3.2 °C 1015.0 hPa WSW 3.2 km/h 8.0 km/h 51% 0.0 mm CLR
04:05 13.1 °C 3.2 °C 1014.7 hPa SW 4.7 km/h 3.7 km/h 51% 0.0 mm CLR
04:10 13.1 °C 3.2 °C 1014.7 hPa SW 2.9 km/h 4.7 km/h 51% 0.0 mm CLR
04:15 12.9 °C 3.3 °C 1014.7 hPa SW 2.9 km/h 3.7 km/h 52% 0.0 mm CLR
04:19 12.9 °C 3.3 °C 1014.8 hPa SW 2.3 km/h 3.7 km/h 52% 0.0 mm CLR
04:25 12.8 °C 3.2 °C 1014.8 hPa SW 1.6 km/h 3.2 km/h 52% 0.0 mm CLR
04:30 12.7 °C 3.3 °C 1014.8 hPa SW 2.3 km/h 5.6 km/h 53% 0.0 mm CLR
04:35 12.7 °C 3.3 °C 1014.9 hPa SW 2.3 km/h 5.6 km/h 53% 0.0 mm CLR
04:40 12.7 °C 3.3 °C 1014.9 hPa WNW 3.2 km/h 7.4 km/h 53% 0.0 mm CLR
04:45 12.6 °C 3.6 °C 1014.9 hPa WSW 3.2 km/h 7.4 km/h 54% 0.0 mm CLR
04:50 12.4 °C 3.3 °C 1014.7 hPa WSW 3.2 km/h 8.0 km/h 54% 0.0 mm CLR
04:55 12.2 °C 3.2 °C 1014.7 hPa West 3.9 km/h 9.3 km/h 54% 0.0 mm CLR
05:00 12.5 °C 3.4 °C 1014.7 hPa West 8.0 km/h 27.4 km/h 54% 0.0 mm CLR
05:05 13.1 °C 3.4 °C 1014.6 hPa WNW 8.0 km/h 24.1 km/h 52% 0.0 mm CLR
05:09 13.4 °C 3.4 °C 1014.6 hPa WNW 14.8 km/h 18.5 km/h 51% 0.0 mm CLR
05:15 13.4 °C 3.4 °C 1014.6 hPa WNW 14.8 km/h 16.7 km/h 51% 0.0 mm CLR
05:20 13.5 °C 3.3 °C 1014.4 hPa WNW 12.2 km/h 25.9 km/h 50% 0.0 mm CLR
05:25 13.8 °C 3.6 °C 1014.4 hPa NW 12.2 km/h 20.4 km/h 50% 0.0 mm CLR
05:30 13.8 °C 3.3 °C 1014.4 hPa WNW 19.3 km/h 25.7 km/h 49% 0.0 mm CLR
05:35 13.7 °C 3.4 °C 1014.1 hPa WNW 19.3 km/h 29.0 km/h 50% 0.0 mm CLR
05:40 13.4 °C 3.2 °C 1014.1 hPa WSW 14.8 km/h 11.1 km/h 50% 0.0 mm CLR
05:45 13.1 °C 3.2 °C 1014.1 hPa WSW 14.5 km/h 14.5 km/h 51% 0.0 mm CLR
05:50 12.8 °C 3.2 °C 1014.3 hPa WSW 8.0 km/h 11.3 km/h 52% 0.0 mm CLR
05:55 12.6 °C 3.2 °C 1014.3 hPa WSW 8.0 km/h 9.7 km/h 53% 0.0 mm CLR
06:00 12.3 °C 3.2 °C 1014.3 hPa WSW 4.8 km/h 11.3 km/h 54% 0.0 mm CLR
06:05 12.1 °C 3.3 °C 1014.5 hPa West 5.8 km/h 11.1 km/h 55% 0.0 mm CLR
06:10 12.0 °C 3.2 °C 1014.5 hPa WSW 7.6 km/h 9.5 km/h 55% 0.0 mm CLR
06:15 11.9 °C 3.1 °C 1014.5 hPa WSW 8.0 km/h 11.3 km/h 55% 0.0 mm CLR
06:20 11.9 °C 3.4 °C 1014.5 hPa WSW 6.9 km/h 7.4 km/h 56% 0.0 mm CLR
06:25 11.9 °C 3.4 °C 1014.5 hPa SSW 6.9 km/h 9.3 km/h 56% 0.0 mm CLR
06:30 11.9 °C 3.4 °C 1014.5 hPa WSW 8.0 km/h 11.3 km/h 56% 0.0 mm CLR
06:35 11.9 °C 3.4 °C 1014.5 hPa WSW 6.4 km/h 7.4 km/h 56% 0.0 mm CLR
06:40 11.9 °C 3.4 °C 1014.5 hPa WSW 4.8 km/h 9.7 km/h 56% 0.0 mm CLR
06:44 12.1 °C 3.3 °C 1014.5 hPa SW 5.0 km/h 9.3 km/h 55% 0.0 mm CLR
06:50 12.2 °C 3.4 °C 1014.5 hPa SW 4.8 km/h 8.0 km/h 55% 0.0 mm CLR
06:55 12.3 °C 3.5 °C 1014.5 hPa SW 4.8 km/h 9.7 km/h 55% 0.0 mm CLR
07:00 12.3 °C 3.3 °C 1014.5 hPa WSW 4.8 km/h 11.3 km/h 54% 0.0 mm CLR
07:05 12.4 °C 3.3 °C 1014.4 hPa WSW 4.8 km/h 14.5 km/h 54% 0.0 mm CLR
07:10 12.4 °C 3.6 °C 1014.4 hPa SW 6.9 km/h 14.8 km/h 55% 0.0 mm CLR
07:15 12.5 °C 3.4 °C 1014.4 hPa WNW 6.9 km/h 13.0 km/h 54% 0.0 mm CLR
07:20 12.6 °C 3.5 °C 1014.4 hPa West 9.7 km/h 17.7 km/h 54% 0.0 mm CLR
07:25 12.5 °C 3.7 °C 1014.4 hPa West 9.7 km/h 9.7 km/h 55% 0.0 mm CLR
07:30 12.4 °C 3.3 °C 1014.4 hPa SE 3.9 km/h 7.4 km/h 54% 0.0 mm CLR
07:35 12.1 °C 3.3 °C 1014.4 hPa South 3.2 km/h 9.7 km/h 55% 0.0 mm CLR
07:40 11.8 °C 3.6 °C 1014.4 hPa SSE 5.0 km/h 7.4 km/h 57% 0.0 mm CLR
07:45 11.6 °C 3.4 °C 1014.4 hPa SSE 4.8 km/h 8.0 km/h 57% 0.0 mm CLR
07:50 11.4 °C 3.4 °C 1014.4 hPa SSE 4.8 km/h 9.7 km/h 58% 0.0 mm CLR
07:55 11.4 °C 3.4 °C 1014.4 hPa SSE 4.8 km/h 8.0 km/h 58% 0.0 mm CLR
08:00 11.4 °C 3.4 °C 1014.4 hPa SSE 4.8 km/h 9.7 km/h 58% 0.0 mm CLR
08:05 11.4 °C 3.7 °C 1014.3 hPa SE 4.8 km/h 8.0 km/h 59% 0.0 mm CLR
08:10 11.4 °C 3.7 °C 1014.3 hPa SSE 4.8 km/h 8.0 km/h 59% 0.0 mm CLR
08:15 11.4 °C 3.4 °C 1014.3 hPa SSE 4.8 km/h 12.9 km/h 58% 0.0 mm CLR
08:20 11.4 °C 3.7 °C 1014.6 hPa WNW 3.2 km/h 7.4 km/h 59% 0.0 mm CLR
08:25 11.3 °C 3.6 °C 1014.6 hPa WNW 3.2 km/h 9.7 km/h 59% 0.0 mm CLR
08:30 11.3 °C 3.6 °C 1014.6 hPa WNW 3.9 km/h 5.6 km/h 59% 0.0 mm CLR
08:35 11.2 °C 3.5 °C 1014.5 hPa NW 3.9 km/h 5.6 km/h 59% 0.0 mm CLR
08:40 11.2 °C 3.5 °C 1014.5 hPa WNW 4.7 km/h 3.7 km/h 59% 0.0 mm CLR
08:45 11.3 °C 3.6 °C 1014.5 hPa WNW 3.2 km/h 4.8 km/h 59% 0.0 mm CLR
08:50 11.4 °C 3.7 °C 1014.8 hPa WSW 3.2 km/h 8.0 km/h 59% 0.0 mm CLR
08:55 11.6 °C 3.6 °C 1014.8 hPa SE 3.2 km/h 8.0 km/h 58% 0.0 mm CLR
09:00 11.7 °C 3.7 °C 1014.8 hPa ESE 3.2 km/h 8.0 km/h 58% 0.0 mm CLR
09:04 11.7 °C 3.7 °C 1015.0 hPa SE 4.7 km/h 5.0 km/h 58% 0.0 mm CLR
09:10 11.6 °C 3.6 °C 1015.0 hPa ESE 2.9 km/h 7.4 km/h 58% 0.0 mm CLR
09:15 11.5 °C 3.8 °C 1015.0 hPa SSE 2.9 km/h 9.3 km/h 59% 0.0 mm CLR
09:20 11.4 °C 3.9 °C 1015.1 hPa SE 8.0 km/h 12.9 km/h 60% 0.0 mm CLR
09:25 11.6 °C 3.8 °C 1015.1 hPa SSE 8.0 km/h 12.9 km/h 59% 0.0 mm CLR
09:30 11.7 °C 3.9 °C 1015.1 hPa SSE 8.0 km/h 9.7 km/h 59% 0.0 mm CLR
09:35 12.0 °C 4.0 °C 1015.1 hPa ESE 7.6 km/h 5.6 km/h 58% 0.0 mm CLR
09:40 12.2 °C 3.9 °C 1015.1 hPa SW 3.9 km/h 5.6 km/h 57% 0.0 mm CLR
09:45 12.4 °C 4.1 °C 1015.1 hPa SW 3.9 km/h 7.4 km/h 57% 0.0 mm CLR
09:50 12.6 °C 4.0 °C 1015.0 hPa SW 3.2 km/h 8.0 km/h 56% 0.0 mm CLR
09:55 12.7 °C 4.2 °C 1015.0 hPa West 3.9 km/h 3.7 km/h 56% 0.0 mm CLR
10:00 12.9 °C 4.1 °C 1015.0 hPa WSW 3.2 km/h 6.4 km/h 55% 0.0 mm CLR
10:05 13.1 °C 4.0 °C 1015.1 hPa ESE 3.9 km/h 7.4 km/h 54% 0.0 mm CLR
10:10 13.2 °C 4.1 °C 1015.1 hPa South 4.8 km/h 9.7 km/h 54% 0.0 mm CLR
10:15 13.3 °C 4.2 °C 1015.1 hPa SSW 4.8 km/h 8.0 km/h 54% 0.0 mm CLR
10:20 13.3 °C 4.2 °C 1015.0 hPa WSW 3.9 km/h 7.4 km/h 54% 0.0 mm CLR
10:25 13.3 °C 3.9 °C 1015.0 hPa WSW 3.9 km/h 8.4 km/h 53% 0.0 mm CLR
10:30 13.4 °C 4.3 °C 1015.0 hPa SW 4.8 km/h 9.7 km/h 54% 0.0 mm CLR
10:35 13.4 °C 4.0 °C 1014.7 hPa SSW 4.8 km/h 14.5 km/h 53% 0.0 mm CLR
10:40 13.4 °C 4.3 °C 1014.7 hPa South 4.8 km/h 9.7 km/h 54% 0.0 mm CLR
10:45 13.4 °C 4.3 °C 1014.7 hPa SW 5.8 km/h 9.3 km/h 54% 0.0 mm CLR
10:50 13.4 °C 4.3 °C 1014.6 hPa SSW 4.8 km/h 9.7 km/h 54% 0.0 mm CLR
10:55 13.4 °C 4.3 °C 1014.6 hPa SSW 4.8 km/h 9.7 km/h 54% 0.0 mm CLR
11:00 13.4 °C 4.3 °C 1014.6 hPa SSW 4.8 km/h 11.3 km/h 54% 0.0 mm CLR
11:05 13.5 °C 4.4 °C 1014.7 hPa West 5.0 km/h 7.4 km/h 54% 0.0 mm CLR
11:10 13.6 °C 4.4 °C 1014.7 hPa West 5.8 km/h 7.4 km/h 54% 0.0 mm CLR
11:15 13.7 °C 4.3 °C 1014.7 hPa SW 5.8 km/h 9.3 km/h 53% 0.0 mm CLR
11:20 13.9 °C 4.4 °C 1014.5 hPa West 5.8 km/h 13.0 km/h 53% 0.0 mm CLR
11:25 14.1 °C 4.4 °C 1014.5 hPa WSW 5.8 km/h 14.8 km/h 52% 0.0 mm CLR
11:30 14.2 °C 4.5 °C 1014.5 hPa South 8.4 km/h 13.0 km/h 52% 0.0 mm CLR
11:35 14.2 °C 4.5 °C 1014.4 hPa South 8.4 km/h 13.0 km/h 52% 0.0 mm CLR
11:40 14.2 °C 4.2 °C 1014.4 hPa South 8.0 km/h 14.5 km/h 51% 0.0 mm CLR
11:45 14.3 °C 4.3 °C 1014.4 hPa SSW 8.4 km/h 9.3 km/h 51% 0.0 mm CLR
11:50 14.4 °C 4.4 °C 1014.3 hPa South 8.0 km/h 9.7 km/h 51% 0.0 mm CLR
11:55 14.7 °C 4.4 °C 1014.3 hPa South 8.0 km/h 14.5 km/h 50% 0.0 mm CLR
12:00 14.9 °C 4.6 °C 1014.3 hPa South 8.0 km/h 12.9 km/h 50% 0.0 mm CLR
12:05 15.2 °C 4.6 °C 1013.8 hPa SE 7.6 km/h 11.1 km/h 49% 0.0 mm CLR
12:10 15.5 °C 4.5 °C 1013.8 hPa SW 6.9 km/h 20.4 km/h 48% 0.0 mm CLR
12:15 15.7 °C 4.4 °C 1013.8 hPa SSW 8.0 km/h 20.9 km/h 47% 0.0 mm CLR
12:20 15.6 °C 4.7 °C 1013.5 hPa SSW 11.3 km/h 16.1 km/h 48% 0.0 mm CLR
12:25 15.9 °C 4.6 °C 1013.5 hPa SSW 10.3 km/h 14.8 km/h 47% 0.0 mm CLR
12:30 16.0 °C 4.7 °C 1013.5 hPa SSW 9.7 km/h 19.3 km/h 47% 0.0 mm CLR
12:35 16.0 °C 4.7 °C 1013.0 hPa SSW 9.7 km/h 12.9 km/h 47% 0.0 mm CLR
12:40 16.2 °C 4.2 °C 1013.0 hPa SW 9.7 km/h 19.3 km/h 45% 0.0 mm CLR
12:45 16.4 °C 4.4 °C 1013.0 hPa WSW 9.7 km/h 14.5 km/h 45% 0.0 mm CLR
12:50 16.4 °C 4.4 °C 1012.4 hPa SW 9.7 km/h 17.7 km/h 45% 0.0 mm CLR
12:55 16.4 °C 4.4 °C 1012.4 hPa SSW 9.7 km/h 14.5 km/h 45% 0.0 mm CLR
13:00 16.5 °C 4.5 °C 1012.4 hPa SW 8.0 km/h 11.3 km/h 45% 0.0 mm CLR
13:05 16.6 °C 4.6 °C 1012.2 hPa WSW 6.4 km/h 7.4 km/h 45% 0.0 mm CLR
13:10 16.7 °C 4.4 °C 1012.2 hPa WNW 4.7 km/h 11.1 km/h 44% 0.0 mm CLR
13:15 16.7 °C 4.4 °C 1012.2 hPa WNW 4.7 km/h 3.7 km/h 44% 0.0 mm CLR
13:20 16.8 °C 4.4 °C 1011.9 hPa WNW 4.8 km/h 6.4 km/h 44% 0.0 mm CLR
13:25 16.8 °C 4.2 °C 1011.9 hPa WNW 5.0 km/h 11.1 km/h 43% 0.0 mm CLR
13:30 16.9 °C 4.6 °C 1011.9 hPa West 8.0 km/h 12.9 km/h 44% 0.0 mm CLR
13:35 16.9 °C 4.6 °C 1011.8 hPa West 8.0 km/h 12.9 km/h 44% 0.0 mm CLR
13:40 16.9 °C 4.6 °C 1011.8 hPa WNW 4.8 km/h 11.3 km/h 44% 0.0 mm CLR
13:45 17.0 °C 4.7 °C 1011.8 hPa NW 4.8 km/h 16.1 km/h 44% 0.0 mm CLR
13:50 16.9 °C 4.6 °C 1011.5 hPa NW 7.6 km/h 11.1 km/h 44% 0.0 mm CLR
13:55 16.9 °C 4.6 °C 1011.5 hPa North 8.0 km/h 12.9 km/h 44% 0.0 mm CLR
14:00 16.9 °C 4.9 °C 1011.5 hPa North 8.0 km/h 9.7 km/h 45% 0.0 mm CLR
14:05 17.1 °C 4.7 °C 1011.4 hPa NNE 8.0 km/h 9.7 km/h 44% 0.0 mm CLR
14:10 17.3 °C 4.6 °C 1011.4 hPa NNE 4.7 km/h 3.7 km/h 43% 0.0 mm CLR
14:15 17.4 °C 4.7 °C 1011.4 hPa NE 3.2 km/h 11.3 km/h 43% 0.0 mm CLR
14:20 17.5 °C 4.8 °C 1010.8 hPa NE 5.8 km/h 5.6 km/h 43% 0.0 mm FEW
14:25 17.7 °C 4.6 °C 1010.8 hPa NNE 5.8 km/h 7.4 km/h 42% 0.0 mm FEW
14:30 17.9 °C 5.1 °C 1010.8 hPa NNE 3.2 km/h 9.7 km/h 43% 0.0 mm FEW
14:35 17.9 °C 4.8 °C 1010.6 hPa North 3.9 km/h 9.3 km/h 42% 0.0 mm FEW
14:40 17.9 °C 4.8 °C 1010.6 hPa NNW 6.4 km/h 7.4 km/h 42% 0.0 mm FEW
14:45 17.9 °C 5.1 °C 1010.6 hPa North 8.0 km/h 11.3 km/h 43% 0.0 mm FEW
14:50 17.9 °C 4.8 °C 1010.0 hPa North 5.8 km/h 11.1 km/h 42% 0.0 mm FEW
14:55 17.9 °C 4.8 °C 1010.0 hPa North 4.8 km/h 12.9 km/h 42% 0.0 mm FEW
15:00 17.9 °C 5.1 °C 1010.0 hPa North 8.0 km/h 9.7 km/h 43% 0.0 mm FEW
15:05 17.9 °C 4.8 °C 1009.5 hPa NNE 8.0 km/h 9.7 km/h 42% 0.0 mm FEW
15:10 18.0 °C 4.9 °C 1009.5 hPa North 3.2 km/h 11.3 km/h 42% 0.0 mm FEW
15:15 18.1 °C 5.0 °C 1009.5 hPa NNW 3.2 km/h 11.3 km/h 42% 0.0 mm FEW
15:20 18.1 °C 5.0 °C 1009.8 hPa NNW 3.2 km/h 11.3 km/h 42% 0.0 mm FEW
15:25 18.3 °C 4.8 °C 1009.8 hPa NW 3.2 km/h 12.9 km/h 41% 0.0 mm FEW
15:30 18.3 °C 4.8 °C 1009.8 hPa NW 4.8 km/h 11.3 km/h 41% 0.0 mm FEW
15:35 18.3 °C 4.8 °C 1009.4 hPa WNW 4.8 km/h 11.3 km/h 41% 0.0 mm FEW
15:40 18.4 °C 4.9 °C 1009.4 hPa NE 5.0 km/h 9.3 km/h 41% 0.0 mm FEW
15:42 18.5 °C 5.0 °C 1009.4 hPa NE 5.0 km/h 5.6 km/h 41% 0.0 mm FEW
20:54 15.3 °C 3.4 °C 1009.3 hPa South 6.4 km/h 11.1 km/h 45% 0.0 mm FEW
20:59 15.2 °C 3.3 °C 1009.3 hPa South 6.4 km/h 9.3 km/h 45% 0.0 mm FEW
21:04 15.1 °C 3.2 °C 1009.2 hPa South 6.4 km/h 9.3 km/h 45% 0.0 mm CLR
21:09 15.0 °C 3.4 °C 1009.2 hPa SSE 7.6 km/h 11.1 km/h 46% 0.0 mm CLR
21:14 14.9 °C 3.4 °C 1009.2 hPa South 7.6 km/h 13.0 km/h 46% 0.0 mm CLR
21:19 14.8 °C 3.3 °C 1009.1 hPa SSE 8.7 km/h 16.7 km/h 46% 0.0 mm CLR
21:24 14.9 °C 3.4 °C 1009.1 hPa SSE 8.7 km/h 14.8 km/h 46% 0.0 mm CLR
21:29 14.9 °C 3.4 °C 1009.1 hPa SSE 11.1 km/h 13.0 km/h 46% 0.0 mm CLR
21:34 14.9 °C 3.4 °C 1009.2 hPa South 11.1 km/h 13.0 km/h 46% 0.0 mm CLR
21:39 15.0 °C 3.4 °C 1009.2 hPa South 9.5 km/h 13.0 km/h 46% 0.0 mm CLR
21:44 15.1 °C 3.6 °C 1009.2 hPa South 9.5 km/h 14.8 km/h 46% 0.0 mm CLR
21:49 15.1 °C 3.6 °C 1009.3 hPa SSE 10.0 km/h 11.1 km/h 46% 0.0 mm CLR
21:54 15.2 °C 3.7 °C 1009.3 hPa SE 10.0 km/h 13.0 km/h 46% 0.0 mm CLR
21:59 15.1 °C 3.6 °C 1009.3 hPa SSE 8.7 km/h 11.1 km/h 46% 0.0 mm CLR
22:04 14.9 °C 3.7 °C 1009.4 hPa SSE 8.7 km/h 13.0 km/h 47% 0.0 mm CLR
22:09 14.8 °C 3.6 °C 1009.4 hPa SE 8.7 km/h 11.1 km/h 47% 0.0 mm CLR
22:14 14.7 °C 3.8 °C 1009.4 hPa SE 8.7 km/h 9.3 km/h 48% 0.0 mm CLR
22:19 14.7 °C 3.5 °C 1009.6 hPa South 8.4 km/h 11.1 km/h 47% 0.0 mm CLR
22:24 14.8 °C 3.6 °C 1009.6 hPa West 8.4 km/h 9.3 km/h 47% 0.0 mm CLR
22:29 14.8 °C 3.6 °C 1009.6 hPa SSW 6.9 km/h 13.0 km/h 47% 0.0 mm CLR
22:34 15.2 °C 3.7 °C 1009.6 hPa SSW 6.9 km/h 16.7 km/h 46% 0.0 mm CLR
22:39 15.4 °C 3.8 °C 1009.6 hPa SSE 10.0 km/h 16.7 km/h 46% 0.0 mm CLR
22:44 15.4 °C 3.5 °C 1009.6 hPa WSW 10.0 km/h 7.4 km/h 45% 0.0 mm CLR
22:49 15.3 °C 3.7 °C 1009.6 hPa WSW 8.4 km/h 7.4 km/h 46% 0.0 mm CLR
22:54 15.3 °C 3.7 °C 1009.6 hPa South 8.4 km/h 13.0 km/h 46% 0.0 mm CLR
22:59 15.3 °C 3.7 °C 1009.6 hPa SSE 8.7 km/h 11.1 km/h 46% 0.0 mm CLR
23:04 15.3 °C 3.7 °C 1009.7 hPa WSW 8.7 km/h 10.3 km/h 46% 0.0 mm CLR
23:09 15.2 °C 3.9 °C 1009.7 hPa West 6.9 km/h 6.4 km/h 47% 0.0 mm CLR
23:14 15.1 °C 3.8 °C 1009.7 hPa SW 6.9 km/h 9.3 km/h 47% 0.0 mm CLR
23:19 14.9 °C 3.7 °C 1009.6 hPa NW 5.0 km/h 7.4 km/h 47% 0.0 mm CLR
23:24 14.8 °C 3.9 °C 1009.6 hPa SW 5.0 km/h 11.1 km/h 48% 0.0 mm CLR
23:29 14.8 °C 3.9 °C 1009.6 hPa SW 5.8 km/h 7.4 km/h 48% 0.0 mm CLR
23:34 14.8 °C 3.9 °C 1009.4 hPa SSW 5.8 km/h 7.4 km/h 48% 0.0 mm CLR
23:39 14.8 °C 3.9 °C 1009.4 hPa SSW 4.7 km/h 1.9 km/h 48% 0.0 mm CLR
23:44 14.6 °C 4.0 °C 1009.4 hPa SSW 4.7 km/h 8.4 km/h 49% 0.0 mm CLR
23:49 14.7 °C 4.1 °C 1009.5 hPa South 3.9 km/h 9.3 km/h 49% 0.0 mm CLR
23:54 14.7 °C 4.1 °C 1009.5 hPa South 3.9 km/h 6.4 km/h 49% 0.0 mm CLR
23:59 14.7 °C 4.1 °C 1009.5 hPa SE 4.7 km/h 6.4 km/h 49% 0.0 mm CLR
Murcia-Puente Tocinos, España
Compliments of Weather Underground - 2.5 mb

La estación de MeteoMurcia.com, publica sus datos en los siguientes proyectos:

Weather Underground PWS IMURCIAP2 Meteoclimatic www.awekas.at

W3Counter
Web Analytics